User: anonymous
Location: Mount Wilson Observatory
(34.2257°N, 118.0571°W)
Time: 10:28:25
(UTC-07:00)
Language:

ATLAS 3B CENTAUR R/B - Orbit

View from above orbital plane
View from above orbital plane
View from above satellite
View from above satellite

Ground track
Ground track

The orbit data is extracted from the following two-line orbital elements,

1 28118U 03057B   14109.81523473  .00089777  00000-0  19063-2 0  4829
2 28118 028.1696 231.5728 3948269 289.2513 300.5031 07.61944071191128
Epoch (UTC): 19 April 2014 19:33:56
Eccentricity: 0.3948269
inclination: 28.1696°
perigee height: 224 km
apogee height: 8838 km
right ascension of ascending node: 231.5728°
argument of perigee: 289.2513°
revolutions per day: 7.61944071
mean anomaly at epoch: 300.5031°
orbit number at epoch: 19112

The dashed part of the orbit path shows where the satellite is in the earth's shadow,  

DLR